Regional Weather Roundup
Issued by NWS Jackson, KY

Home | Current Version | Previous Version | Graphics & Text | Print | Product List | Glossary On
Versions: 1 2 3 4 5 6 7 8 9 10 11 12 13 14 15 16 17 18 19 20 21 22 23 24 25 26 27 28 29 30 31 32 33 34 35 36 37 38 39 40 41 42 43 44 45 46 47 48 49 50
000
ASUS43 KJKL 160519
RWRJKL

EAST KENTUCKY HOURLY WEATHER ROUNDUP
NATIONAL WEATHER SERVICE JACKSON KY
100 AM EDT WED APR 16 2014

NOTE: "FAIR" INDICATES FEW OR NO CLOUDS BELOW 12,000 FEET WITH
NO SIGNIFICANT WEATHER AND/OR OBSTRUCTIONS TO VISIBILITY.

* THESE REPORTS ARE NOT UNDER NWS QUALITY CONTROL AND MAY NOT
  REPORT WEATHER SUCH AS PRECIPITATION AND FOG.

KYZ079-080-083-085-087-088-110-112-115-119-120-160600
...EASTERN KENTUCKY...

CITY           SKY/WX    TMP DP  RH WIND       PRES   REMARKS
JACKSON        CLEAR     31  20  63 NE3       30.21R
LONDON         CLEAR     32  21  64 NE5       30.21S WCI  27
SOMERSET*      CLEAR     32  21  64 NE5       30.25R WCI  27
MONTICELLO*    CLEAR     31  23  72 CALM      30.25R
WILLIAMSBURG*  CLEAR     32  23  69 NE3       30.22R
MIDDLESBORO*   CLEAR     34  21  60 N3        30.22R
HARLAN APT*    CLEAR     32  21  64 CALM      30.19R
BLACK MTN*       N/A     19  19 100 N10         N/A  WCI   8
PIKEVILLE APT* CLEAR     30  18  59 N7        30.20R WCI  23
BIG SANDY*     CLEAR     31  20  65 N5        30.22R WCI  26
ASHLAND*       CLEAR     32  18  55 CALM      30.24S
MOREHEAD APT*  PTCLDY   N/A N/A N/A MISG      30.26S
$$

KYZ035-036-041-042-044-050-067-078-099-160600
...CENTRAL KENTUCKY...

CITY           SKY/WX    TMP DP  RH WIND       PRES   REMARKS
MT STERLING*   CLEAR     30  21  69 NE3       30.25R
FLEMING/MASON* CLEAR     30  18  59 N7        30.26R WCI  23
DANVILLE*      CLEAR     30  23  74 NE3       30.25R
RICHMOND*      CLEAR     30  21  69 N5        30.23R WCI  25
LEXINGTON      CLEAR     29  19  66 NE6       30.24R WCI  23
FRANKFORT      CLEAR     32  19  58 NE3       30.24R
$$

KYZ091>093-OHZ055-061-077-WVZ005-015-034-035-042-160600
...SOUTHERN OHIO/WEST VIRGINIA...

CITY           SKY/WX    TMP DP  RH WIND       PRES   REMARKS
COVINGTON      CLEAR     32  16  51 NE6       30.25S WCI  26
COLUMBUS       CLEAR     31  15  52 NW8       30.25R WCI  23
DAYTON         CLEAR     27  16  63 NE6       30.25S WCI  20
WILMINGTON     CLEAR     28  16  60 N6        30.25R WCI  22
HUNTINGTON     CLEAR     30  19  63 N6        30.24R WCI  24
CHARLESTON     PTCLDY    32  18  56 NW6       30.22R WCI  26
PINEVILLE*     MOCLDY    32  20  62 MISG      30.21R
BECKLEY        CLOUDY    26  14  60 N15       30.11R WCI  14
BLUEFIELD      CLOUDY    28  15  58 NW9G20    30.08S WCI  19
$$

VAZ002-007-008-TNZ017-027-036-066-071-160600
...SOUTHWEST VIRGINIA/EAST TENNESSEE...

CITY           SKY/WX    TMP DP  RH WIND       PRES   REMARKS
WISE*          PTCLDY    28  19  69 N9        30.13R WCI  20
ABINGDON*      PTCLDY    32  17  54 N5        30.13R WCI  27
BRISTOL        CLOUDY    34  18  52 VRB5      30.18R WCI  30
KNOXVILLE      PTCLDY    36  22  56 N9        30.20R WCI  29
OAK RIDGE      CLEAR     36  23  59 N3        30.23R
CROSSVILLE     CLEAR     34  22  61 CALM      30.19R
NASHVILLE      CLEAR     36  23  59 N3        30.26R
$$

...KEY TO REMARKS...
VSB - VISIBILITY IN MILES
WCI - WIND CHILL INDEX
HX  - HEAT INDEX

$$



USA.gov is the U.S. government's official web portal to all federal, state and local government web resources and services.